GW1081 Weather Reports


Display with metric or nautical units.
time (UTC)temp
F
wind
direction
speed
MPH
gust
MPH
rain 1hr
in
rain 24hr
in
rain mn
in
humidity
%
barometer
mb
20260507155321 51 99 1.0 3.0 0.00 0.00 0.00 50 1014.9
20260507154830 51 103 2.0 4.0 0.00 0.00 0.00 52 1015.0
20260507154318 50 139 2.0 4.0 0.00 0.00 0.00 52 1014.8
20260507153851 49 110 1.0 3.0 0.00 0.00 0.00 53 1015.0
20260507153318 48 108 1.0 3.0 0.00 0.00 0.00 54 1015.0
20260507152826 48 43 2.0 4.0 0.00 0.00 0.00 55 1015.1
20260507152331 48 41 1.0 4.0 0.00 0.00 0.00 56 1015.3
20260507151821 47 150 0.0 2.0 0.00 0.00 0.00 60 1015.3
20260507151330 46 134 1.0 2.0 0.00 0.00 0.00 60 1015.3
20260507150818 44 128 0.0 1.0 0.00 0.00 0.00 63 1015.5
20260507150341 43 209 0.0 2.0 0.00 0.00 0.00 66 1015.5
20260507145828 42 110 0.0 2.0 0.00 0.00 0.00 67 1015.5
20260507145318 42 107 0.0 2.0 0.00 0.00 0.00 64 1015.5
20260507144828 42 107 1.0 2.0 0.00 0.00 0.00 63 1015.5
20260507144316 41 103 0.0 1.0 0.00 0.00 0.00 60 1015.5
20260507143823 41 61 0.0 1.0 0.00 0.00 0.00 59 1015.5
20260507143352 41 61 0.0 1.0 0.00 0.00 0.00 59 1015.5
20260507142822 41 61 1.0 1.0 0.00 0.00 0.00 58 1015.5
20260507142358 41 60 0.0 1.0 0.00 0.00 0.00 58 1015.3
20260507141846 40 61 0.0 1.0 0.00 0.00 0.00 58 1015.2
20260507141314 40 61 0.0 0.0 0.00 0.00 0.00 59 1015.3
20260507140849 40 61 0.0 0.0 0.00 0.00 0.00 60 1015.3
20260507140332 39 61 0.0 1.0 0.00 0.00 0.00 60 1015.2
20260507135821 39 61 0.0 1.0 0.00 0.00 0.00 62 1015.1
20260507135329 38 61 0.0 1.0 0.00 0.00 0.00 62 1015.1
20260507134839 38 61 0.0 1.0 0.00 0.00 0.00 63 1015.0
20260507134328 37 60 0.0 2.0 0.00 0.00 0.00 63 1015.0
20260507133838 37 60 1.0 2.0 0.00 0.00 0.00 64 1015.0
20260507133345 37 60 0.0 2.0 0.00 0.00 0.00 64 1015.1
20260507132834 37 68 0.0 1.0 0.00 0.00 0.00 65 1015.0
20260507132324 37 68 0.0 4.0 0.00 0.00 0.00 64 1015.0
20260507131834 37 47 1.0 4.0 0.00 0.00 0.00 64 1014.9
20260507131324 37 108 0.0 1.0 0.00 0.00 0.00 65 1014.9
20260507130834 37 107 0.0 1.0 0.00 0.00 0.00 64 1014.9
20260507130323 37 106 0.0 2.0 0.00 0.00 0.00 64 1015.0
20260507125832 37 107 1.0 2.0 0.00 0.00 0.00 64 1014.9
20260507125320 36 145 1.0 2.0 0.00 0.00 0.00 65 1014.8
20260507124831 35 207 0.0 2.0 0.00 0.00 0.00 66 1014.9
20260507124321 35 207 0.0 1.0 0.00 0.00 0.00 67 1014.8
20260507123828 35 207 0.0 1.0 0.00 0.00 0.00 67 1014.8
20260507123319 35 207 0.0 1.0 0.00 0.00 0.00 66 1014.7
20260507122826 35 207 0.0 1.0 0.00 0.00 0.00 66 1014.6
20260507122317 35 207 0.0 1.0 0.00 0.00 0.00 66 1014.6
20260507121828 35 207 0.0 1.0 0.00 0.00 0.00 68 1014.5
20260507121318 34 207 0.0 1.0 0.00 0.00 0.00 71 1014.4
20260507120849 33 207 0.0 1.0 0.00 0.00 0.00 71 1014.4
20260507120318 32 207 0.0 0.0 0.00 0.00 0.00 71 1014.4
20260507115825 32 209 0.0 1.0 0.00 0.00 0.00 71 1014.4
20260507115316 31 208 0.0 1.0 0.00 0.00 0.00 69 1014.4
20260507114823 31 208 0.0 1.0 0.00 0.00 0.00 69 1014.2
20260507114332 31 208 0.0 1.0 0.00 0.00 0.00 69 1014.2
20260507113822 31 208 1.0 1.0 0.00 0.00 0.00 68 1014.2
20260507113333 30 208 0.0 1.0 0.00 0.00 0.00 70 1014.1
20260507112822 31 208 0.0 0.0 0.00 0.00 0.00 69 1013.9
20260507112312 31 208 0.0 2.0 0.00 0.00 0.00 71 1013.9
20260507111849 31 208 0.0 2.0 0.00 0.00 0.00 72 1014.0
20260507111318 31 209 0.0 1.0 0.00 0.00 0.00 72 1014.0
20260507110827 30 208 0.0 1.0 0.00 0.00 0.00 72 1014.0
20260507110336 30 207 0.0 1.0 0.00 0.00 0.00 72 1014.1
20260507105847 30 209 0.0 2.0 0.00 0.00 0.00 72 1014.1
20260507105352 30 208 0.0 2.0 0.00 0.00 0.00 71 1014.0
20260507104820 30 208 1.0 2.0 0.00 0.00 0.00 70 1014.0
20260507104329 30 207 0.0 1.0 0.00 0.00 0.00 70 1014.1
20260507103839 31 208 0.0 1.0 0.00 0.00 0.00 72 1014.1
20260507103326 31 208 0.0 1.0 0.00 0.00 0.00 73 1014.1
20260507102816 31 208 0.0 1.0 0.00 0.00 0.00 73 1013.9
20260507102325 31 209 0.0 1.0 0.00 0.00 0.00 72 1013.9
20260507101832 31 208 0.0 1.0 0.00 0.00 0.00 71 1013.9
20260507101322 31 207 0.0 1.0 0.00 0.00 0.00 70 1014.0
20260507100813 31 208 0.0 0.0 0.00 0.00 0.00 69 1013.9
20260507100349 31 208 0.0 0.0 0.00 0.00 0.00 68 1013.9
20260507095819 31 208 0.0 1.0 0.00 0.00 0.00 67 1013.9
20260507095354 31 208 0.0 2.0 0.00 0.00 0.00 67 1013.8
20260507094824 31 208 1.0 2.0 0.00 0.00 0.00 70 1013.8
20260507094314 31 208 0.0 2.0 0.00 0.00 0.00 70 1013.8
20260507093850 31 208 0.0 1.0 0.00 0.00 0.00 70 1013.8
20260507093336 31 208 0.0 0.0 0.00 0.00 0.00 70 1013.8
20260507092841 31 208 0.0 0.0 0.00 0.00 0.00 68 1013.9
20260507092350 31 208 0.0 0.0 0.00 0.00 0.00 64 1013.9
20260507091816 32 209 0.0 0.0 0.00 0.00 0.00 63 1013.9
20260507091325 32 208 0.0 1.0 0.00 0.00 0.00 64 1013.9
20260507090854 32 207 0.0 1.0 0.00 0.00 0.00 66 1013.9
20260507090323 32 208 0.0 1.0 0.00 0.00 0.00 65 1013.7
20260507085833 32 208 0.0 0.0 0.00 0.00 0.00 64 1013.8
20260507085322 33 208 0.0 1.0 0.00 0.00 0.00 64 1013.7
20260507084833 33 208 0.0 1.0 0.00 0.00 0.00 68 1013.5
20260507084322 33 208 0.0 1.0 0.00 0.00 0.00 67 1013.5
20260507083831 33 208 0.0 1.0 0.00 0.00 0.00 65 1013.5
20260507083321 33 207 0.0 1.0 0.00 0.00 0.00 61 1013.6
20260507082831 32 208 0.0 0.0 0.00 0.00 0.00 61 1013.5
20260507082321 32 208 0.0 0.0 0.00 0.00 0.00 61 1013.5
20260507081847 32 208 0.0 0.0 0.00 0.00 0.00 60 1013.5
20260507081315 32 209 0.0 0.0 0.00 0.00 0.00 60 1013.6
20260507080823 33 208 0.0 1.0 0.00 0.00 0.00 59 1013.5
20260507080329 33 208 0.0 1.0 0.00 0.00 0.00 59 1013.4
20260507075820 33 208 0.0 0.0 0.00 0.00 0.00 60 1013.5
20260507075330 33 209 0.0 0.0 0.00 0.00 0.00 60 1013.5
20260507074840 33 208 0.0 1.0 0.00 0.00 0.00 59 1013.5
20260507074329 34 208 0.0 1.0 0.00 0.00 0.00 61 1013.5
20260507073839 34 208 1.0 1.0 0.00 0.00 0.00 63 1013.5
20260507073329 34 208 0.0 0.0 0.00 0.00 0.00 61 1013.5
20260507072821 34 208 0.0 1.0 0.00 0.00 0.00 60 1013.5
20260507072355 34 208 0.0 1.0 0.00 0.00 0.00 61 1013.7
20260507071824 34 208 0.0 0.0 0.00 0.00 0.00 60 1013.8
20260507071335 34 208 0.0 0.0 0.00 0.00 0.00 60 1013.8
20260507070841 35 208 0.0 1.0 0.00 0.00 0.00 61 1013.9
20260507070350 35 209 0.0 2.0 0.00 0.00 0.00 61 1013.9
20260507065818 35 208 0.0 2.0 0.00 0.00 0.00 60 1013.9
20260507065327 35 209 0.0 1.0 0.00 0.00 0.00 59 1014.1
20260507064818 35 209 0.0 1.0 0.00 0.00 0.00 57 1014.2
20260507064325 35 209 0.0 1.0 0.00 0.00 0.00 53 1014.2
20260507063815 35 209 0.0 1.0 0.00 0.00 0.00 51 1014.1
20260507063322 35 208 0.0 0.0 0.00 0.00 0.00 50 1014.2
20260507062830 35 209 0.0 1.0 0.00 0.00 0.00 52 1014.2
20260507062320 35 209 0.0 1.0 0.00 0.00 0.00 56 1014.2
20260507061829 35 209 0.0 1.0 0.00 0.00 0.00 59 1014.2
20260507061319 36 209 0.0 1.0 0.00 0.00 0.00 58 1014.2
20260507060830 36 209 0.0 1.0 0.00 0.00 0.00 61 1014.2
20260507060320 37 209 0.0 1.0 0.00 0.00 0.00 64 1014.2
20260507055845 37 209 0.0 1.0 0.00 0.00 0.00 64 1014.1
20260507055334 38 209 0.0 1.0 0.00 0.00 0.00 64 1014.2
20260507054824 38 208 0.0 1.0 0.00 0.00 0.00 64 1014.4
20260507054350 37 209 0.0 1.0 0.00 0.00 0.00 65 1014.3
20260507053839 37 210 0.0 1.0 0.00 0.00 0.00 65 1014.4
20260507053348 38 210 0.0 0.0 0.00 0.00 0.00 64 1014.4
20260507052818 38 210 0.0 1.0 0.00 0.00 0.00 63 1014.5
20260507052327 39 210 0.0 1.0 0.00 0.00 0.00 63 1014.5
20260507051814 39 210 0.0 2.0 0.00 0.00 0.00 63 1014.6
20260507051343 39 210 0.0 2.0 0.00 0.00 0.00 61 1014.5
20260507050850 39 199 0.0 1.0 0.00 0.00 0.00 60 1014.5
20260507050341 40 118 0.0 1.0 0.00 0.00 0.00 61 1014.5
20260507045832 40 119 0.0 1.0 0.00 0.00 0.00 59 1014.5
20260507045322 40 123 1.0 1.0 0.00 0.00 0.00 58 1014.5
20260507044848 41 245 0.0 1.0 0.00 0.00 0.00 57 1014.6
20260507044316 41 244 0.0 2.0 0.00 0.00 0.00 58 1014.5
20260507043827 41 245 1.0 1.0 0.00 0.00 0.00 56 1014.6
20260507043317 41 245 1.0 1.0 0.00 0.00 0.00 56 1014.5
20260507042828 41 245 0.0 0.0 0.00 0.00 0.00 56 1014.6
20260507042319 41 244 0.0 0.0 0.00 0.00 0.00 56 1014.6
20260507041829 42 245 0.0 0.0 0.00 0.00 0.00 57 1014.6
20260507041320 42 244 0.0 0.0 0.00 0.00 0.00 59 1014.6
20260507040827 43 244 0.0 1.0 0.00 0.00 0.00 59 1014.6
20260507040316 43 244 0.0 1.0 0.00 0.00 0.00 57 1014.6
20260507035823 43 245 0.0 1.0 0.00 0.00 0.00 52 1014.6
20260507035334 44 244 0.0 1.0 0.00 0.00 0.00 47 1014.6
20260507034823 46 244 0.0 1.0 0.00 0.00 0.00 42 1014.6
20260507034332 46 245 0.0 1.0 0.00 0.00 0.00 41 1014.6
20260507033824 47 245 0.0 1.0 0.00 0.00 0.00 38 1014.5
20260507033314 48 245 0.0 2.0 0.00 0.00 0.00 38 1014.6
20260507031819 48 245 2.0 2.0 0.00 0.00 0.00 32 1014.6
20260507031329 48 245 2.0 2.0 0.00 0.00 0.00 30 1014.7
20260507030819 48 243 2.0 2.0 0.00 0.00 0.00 29 1014.7
20260507030324 48 262 0.0 3.0 0.00 0.00 0.00 28 1014.7
20260507025817 48 262 1.0 3.0 0.00 0.00 0.00 29 1014.7
20260507025327 48 262 1.0 2.0 0.00 0.00 0.00 29 1014.7
20260507024815 49 262 1.0 2.0 0.00 0.00 0.00 29 1014.8
20260507024326 49 262 1.0 2.0 0.00 0.00 0.00 29 1014.7
20260507023815 49 262 1.0 2.0 0.00 0.00 0.00 30 1014.7
20260507023327 49 262 1.0 2.0 0.00 0.00 0.00 29 1014.7
20260507022816 49 262 0.0 2.0 0.00 0.00 0.00 29 1014.8
20260507022321 49 262 1.0 2.0 0.00 0.00 0.00 29 1015.0
20260507021832 50 262 1.0 2.0 0.00 0.00 0.00 29 1015.0
20260507021321 50 270 1.0 4.0 0.00 0.00 0.00 29 1015.1
20260507020812 50 287 1.0 5.0 0.00 0.00 0.00 29 1015.2
20260507020328 50 274 2.0 5.0 0.00 0.00 0.00 29 1015.2
20260507015818 50 269 2.0 4.0 0.00 0.00 0.00 29 1015.2
20260507015327 50 286 2.0 6.0 0.00 0.00 0.00 27 1015.2
20260507014818 51 294 2.0 6.0 0.00 0.00 0.00 26 1015.3
20260507014328 51 320 3.0 5.0 0.00 0.00 0.00 26 1015.2
20260507013819 51 318 1.0 5.0 0.00 0.00 0.00 26 1015.3
20260507013328 51 294 1.0 6.0 0.00 0.00 0.00 25 1015.2
20260507012833 52 274 3.0 9.0 0.00 0.00 0.00 25 1015.2
20260507012320 52 281 3.0 9.0 0.00 0.00 0.00 24 1015.3
20260507011830 53 270 4.0 9.0 0.00 0.00 0.00 23 1015.3
20260507011319 54 314 1.0 5.0 0.00 0.00 0.00 23 1015.4
20260507010318 53 267 3.0 7.0 0.00 0.00 0.00 22 1015.3
20260507005824 53 244 3.0 10.0 0.00 0.00 0.00 22 1015.3
20260507005333 53 312 4.0 10.0 0.00 0.00 0.00 23 1015.4
20260507004821 53 338 3.0 5.0 0.00 0.00 0.00 23 1015.4
20260507004356 53 262 2.0 9.0 0.00 0.00 0.00 23 1015.4
20260507003824 53 273 4.0 9.0 0.00 0.00 0.00 22 1015.5
20260507002324 53 273 5.0 10.0 0.00 0.00 0.00 22 1015.5
20260507001831 53 237 3.0 11.0 0.00 0.00 0.00 22 1015.5
20260507001337 53 280 4.0 10.0 0.00 0.00 0.00 22 1015.6
20260507000825 53 288 5.0 11.0 0.00 0.00 0.00 23 1015.7
20260507000332 53 262 6.0 9.0 0.00 0.00 0.00 22 1015.8
20260506235837 53 284 6.0 12.0 0.00 0.00 0.00 22 1015.8
20260506235327 53 298 5.0 11.0 0.00 0.00 0.00 22 1015.8
20260506234814 53 281 4.0 12.0 0.00 0.00 0.00 22 1015.8
20260506234322 53 279 5.0 14.0 0.00 0.00 0.00 22 1015.9
20260506233830 53 245 5.0 18.0 0.00 0.00 0.00 22 1015.9
20260506233321 53 270 9.0 18.0 0.00 0.00 0.00 22 1015.9
20260506232830 53 285 8.0 13.0 0.00 0.00 0.00 22 1015.9
20260506232318 53 250 6.0 11.0 0.00 0.00 0.00 23 1015.9
20260506231848 53 264 5.0 11.0 0.00 0.00 0.00 22 1016.1
20260506231336 53 284 5.0 12.0 0.00 0.00 0.00 23 1016.1
20260506230844 53 286 6.0 12.0 0.00 0.00 0.00 22 1016.1
20260506230312 53 207 4.0 13.0 0.00 0.00 0.00 22 1016.2
20260506225849 53 208 6.0 14.0 0.00 0.00 0.00 22 1016.2
20260506225335 53 266 6.0 13.0 0.00 0.00 0.00 22 1016.4
20260506224841 52 95 3.0 10.0 0.00 0.00 0.00 24 1016.5
20260506224348 52 238 3.0 13.0 0.00 0.00 0.00 24 1016.6
20260506223815 52 256 6.0 13.0 0.00 0.00 0.00 24 1016.8
20260506223320 52 240 6.0 15.0 0.00 0.00 0.00 24 1016.9
20260506222847 52 202 7.0 16.0 0.00 0.00 0.00 23 1016.9
20260506222312 52 233 9.0 16.0 0.00 0.00 0.00 23 1016.9
20260506221848 51 235 6.0 13.0 0.00 0.00 0.00 23 1017.0
20260506221313 51 278 3.0 13.0 0.00 0.00 0.00 24 1017.0
20260506220847 51 257 5.0 9.0 0.00 0.00 0.00 23 1017.2
20260506220335 52 251 5.0 10.0 0.00 0.00 0.00 23 1017.2
20260506215826 52 231 4.0 14.0 0.00 0.00 0.00 24 1017.3
20260506215335 52 314 7.0 14.0 0.00 0.00 0.00 23 1017.3
20260506214826 52 214 4.0 11.0 0.00 0.00 0.00 23 1017.3
20260506214335 51 282 6.0 12.0 0.00 0.00 0.00 24 1017.4
20260506213824 51 212 5.0 15.0 0.00 0.00 0.00 24 1017.4
20260506213330 50 218 4.0 15.0 0.00 0.00 0.00 23 1017.6
20260506212821 51 210 9.0 16.0 0.00 0.00 0.00 23 1017.7
20260506212329 51 233 10.0 16.0 0.00 0.00 0.00 22 1017.8
20260506211838 51 240 9.0 15.0 0.00 0.00 0.00 24 1018.0
20260506211324 51 271 3.0 9.0 0.00 0.00 0.00 24 1018.1
20260506210833 51 314 3.0 9.0 0.00 0.00 0.00 24 1018.2
20260506210321 51 316 2.0 7.0 0.00 0.00 0.00 25 1018.3
20260506205828 51 293 1.0 10.0 0.00 0.00 0.00 26 1018.4
20260506205334 50 301 5.0 10.0 0.00 0.00 0.00 24 1018.5
20260506204821 50 266 5.0 14.0 0.00 0.00 0.00 25 1018.7
20260506204328 50 271 7.0 14.0 0.00 0.00 0.00 24 1018.7
20260506203834 50 262 6.0 11.0 0.00 0.00 0.00 25 1018.7
20260506203322 49 321 2.0 11.0 0.00 0.00 0.00 27 1018.8
20260506202830 48 207 5.0 12.0 0.00 0.00 0.00 27 1018.9
20260506202336 48 211 7.0 12.0 0.00 0.00 0.00 27 1019.0
20260506201824 48 81 2.0 10.0 0.00 0.00 0.00 28 1019.0
20260506201352 48 334 3.0 15.0 0.00 0.00 0.00 28 1019.0
20260506200835 49 332 6.0 15.0 0.00 0.00 0.00 27 1019.2
20260506200321 48 334 6.0 11.0 0.00 0.00 0.00 28 1019.2
20260506195829 48 235 6.0 13.0 0.00 0.00 0.00 29 1019.2
20260506195319 48 262 7.0 13.0 0.00 0.00 0.00 28 1019.2
20260506194830 48 251 6.0 12.0 0.00 0.00 0.00 29 1019.3
20260506194319 48 208 3.0 11.0 0.00 0.00 0.00 27 1019.4
20260506193826 48 260 6.0 12.0 0.00 0.00 0.00 27 1019.4
20260506193333 48 275 7.0 12.0 0.00 0.00 0.00 29 1019.4
20260506192821 47 291 5.0 10.0 0.00 0.00 0.00 28 1019.6
20260506192325 48 8 4.0 11.0 0.00 0.00 0.00 31 1019.6
20260506191834 47 263 3.0 13.0 0.00 0.00 0.00 30 1019.8
20260506191329 47 235 5.0 13.0 0.00 0.00 0.00 29 1019.9
20260506190819 47 306 7.0 11.0 0.00 0.00 0.00 30 1020.0
20260506190355 46 225 1.0 10.0 0.00 0.00 0.00 31 1020.1
20260506185823 45 242 6.0 11.0 0.00 0.00 0.00 32 1020.1
20260506185332 45 291 6.0 17.0 0.00 0.00 0.00 31 1020.2
20260506184820 45 284 6.0 17.0 0.00 0.00 0.00 31 1020.5
20260506184344 46 327 4.0 12.0 0.00 0.00 0.00 33 1020.4
20260506183831 45 300 5.0 12.0 0.00 0.00 0.00 32 1020.4
20260506183340 45 217 7.0 12.0 0.00 0.00 0.00 32 1020.6
20260506182850 45 293 6.0 11.0 0.00 0.00 0.00 33 1020.7
20260506182356 45 237 5.0 10.0 0.00 0.00 0.00 33 1020.7
20260506181822 44 277 3.0 10.0 0.00 0.00 0.00 33 1020.8
20260506181332 44 276 3.0 8.0 0.00 0.00 0.00 34 1020.8
20260506180822 44 22 5.0 8.0 0.00 0.00 0.00 34 1020.9
20260506180329 43 253 2.0 12.0 0.00 0.00 0.00 33 1021.1
20260506175819 44 321 7.0 12.0 0.00 0.00 0.00 32 1021.2
20260506175329 43 337 3.0 10.0 0.00 0.00 0.00 33 1021.2
20260506174819 43 333 4.0 12.0 0.00 0.00 0.00 34 1021.2
20260506174326 43 280 5.0 12.0 0.00 0.00 0.00 33 1021.3
20260506173835 43 252 4.0 11.0 0.00 0.00 0.00 35 1021.2
20260506173325 43 354 6.0 10.0 0.00 0.00 0.00 35 1021.2
20260506172829 42 38 4.0 10.0 0.00 0.00 0.00 36 1021.3
20260506172319 42 342 6.0 11.0 0.00 0.00 0.00 34 1021.3
20260506171849 42 347 5.0 11.0 0.00 0.00 0.00 36 1021.3
20260506171316 42 24 4.0 7.0 0.00 0.00 0.00 36 1021.4
20260506170827 42 49 2.0 11.0 0.00 0.00 0.00 35 1021.4
20260506170317 41 75 2.0 11.0 0.00 0.00 0.00 35 1021.5
20260506165828 41 340 5.0 12.0 0.00 0.00 0.00 35 1021.5
20260506165319 41 29 7.0 12.0 0.00 0.00 0.00 34 1021.5
20260506164825 41 37 5.0 11.0 0.00 0.00 0.00 35 1021.5
20260506164335 42 6 6.0 11.0 0.00 0.00 0.00 35 1021.6
20260506163843 41 30 1.0 9.0 0.00 0.00 0.00 34 1021.7
20260506163330 41 268 3.0 12.0 0.00 0.00 0.00 35 1021.7
20260506162855 41 265 4.0 9.0 0.00 0.00 0.00 34 1021.8
20260506162325 41 278 4.0 13.0 0.00 0.00 0.00 37 1021.8
20260506161834 40 335 5.0 13.0 0.00 0.00 0.00 36 1021.8
20260506161323 40 287 5.0 14.0 0.00 0.00 0.00 38 1021.9
20260506160834 40 135 5.0 14.0 0.00 0.00 0.00 37 1022.0
20260506160323 40 307 4.0 10.0 0.00 0.00 0.00 38 1022.0
20260506155849 39 360 5.0 10.0 0.00 0.00 0.00 36 1022.1